Regional Weather Roundup
Issued by NWS

Home | Current Version | Previous Version | Text Only | Print | Product List | Glossary Off
Versions: 1 2 3 4 5 6 7 8 9 10 11 12 13 14 15 16 17 18 19 20 21 22 23 24 25 26 27

000
ASUS43 KDMX 230807
RWRIA

WEATHER ROUNDUP FOR IOWA
NATIONAL WEATHER SERVICE DES MOINES IA
300 AM CDT THU OCT 23 2014

NOTE: "FAIR" INDICATES FEW OR NO CLOUDS BELOW 12,000 FEET WITH NO
SIGNIFICANT WEATHER AND/OR OBSTRUCTIONS TO VISIBILITY.

* - THESE STATIONS ARE NOT NWS STATIONS...THUS NOT UNDER NWS
QUALITY CONTROL.  THEY ALSO DO NOT REPORT WEATHER SUCH
AS PRECIPITATION OR FOG.

IAZ001>003-012>014-020>022-031>034-043>046-230900-
   NORTHWEST IOWA

CITY           SKY/WX    TMP DP  RH WIND       PRES   REMARKS
CARROLL *      CLOUDY    55  54  94 S8G17     30.02F
CHEROKEE *     LGT RAIN  57  57 100 CALM      30.01S
DENISON *      CLOUDY    57  57 100 S12       30.01R
LE MARS *      CLOUDY    57  57 100 CALM      30.03R FOG
ORANGE CITY *  CLOUDY    57  54  88 W3        30.02S FOG
SHELDON *      CLOUDY    54  54 100 NW5       30.01S FOG
SIOUX CITY     CLOUDY    57  56  96 NW7       30.03R
SPENCER        CLOUDY    57  55  93 S3        30.01S
STORM LAKE *   LGT RAIN  57  55  94 SW12G17   30.02R
$$

IAZ055>058-069>071-079>083-090>094-230900-
   SOUTHWEST IOWA

CITY           SKY/WX    TMP DP  RH WIND       PRES   REMARKS
ATLANTIC *     CLOUDY    57  54  88 S10       30.04S
AUDUBON *      CLOUDY    55  48  76 S10       30.04F
CLARINDA *     MOCLDY    57  57 100 S8        30.09R
COUNCIL BLFS * CLOUDY    61  61 100 S8        30.03R FOG
CRESTON *      LGT RAIN  54  52  94 S13       30.08F
HARLAN  *      CLOUDY    57  57 100 S10       30.07R
LAMONI         RAIN      54  48  80 S13       30.12R
RED OAK *      CLOUDY    59  59 100 S6        30.06R
SHENANDOAH *   RAIN      61  61 100 S12       30.06S
$$

IAZ047>049-059>061-072>074-084-230900-
   CENTRAL IOWA

CITY           SKY/WX    TMP DP  RH WIND       PRES   REMARKS
AMES           LGT RAIN  51  48  89 S8        30.07S
ANKENY *       LGT RAIN  52  50  93 S3        30.09R
CHARITON *     CLOUDY    55  43  62 VRB5G12   30.12S
DES MOINES     LGT RAIN  54  49  83 S8        30.09F
GRINNELL*      MOCLDY    48  41  76 S3        30.13S
KNOXVILLE *    CLOUDY    54  43  66 SW5       30.11S
MARSHALLTOWN   CLOUDY    52  42  69 SE10      30.09F
PELLA *        MOCLDY    52  43  71 CALM      30.14R
PERRY *        CLOUDY    54  52  94 S8        30.06S
$$

IAZ004>006-015-016-023>025-035-036-230900-
   NORTH CENTRAL IOWA

CITY           SKY/WX    TMP DP  RH WIND       PRES   REMARKS
ALGONA *       CLOUDY    54  52  94 S12G17    30.03R
CLARION *      CLOUDY    52  52 100 S12       30.05S
ESTHERVILLE    CLOUDY    54  54 100 S7        30.01S FOG
FORT DODGE *   CLOUDY    54  48  82 S13       30.04S
MASON CITY     CLOUDY    50  45  83 S10       30.06F
FOREST CITY *  CLOUDY    52  46  82 S9        30.04F
IOWA FALLS *   LGT RAIN  50  46  87 SE13      30.06F
$$

IAZ007>011-017>019-026>030-037>042-050>054-066-230900-
   NORTHEAST IOWA

CITY           SKY/WX    TMP DP  RH WIND       PRES   REMARKS
CEDAR RAPIDS   MOCLDY    48  40  73 S10       30.12S
CHARLES CITY * LGT RAIN  48  45  87 S10       30.10R
CLINTON *      CLEAR     39  34  81 SE5       30.21S
DECORAH *      CLOUDY    50  41  71 S10G21    30.10F
DUBUQUE        PTCLDY    44  36  73 S14       30.14F
MONTICELLO *   CLEAR     45  39  81 SE7       30.14S
OELWEIN *      CLOUDY    50  41  71 S7        30.13S
WATERLOO       CLOUDY    52  41  66 S8        30.10F
$$

IAZ064-065-067-068-078-230900-
   EAST CENTRAL IOWA

CITY           SKY/WX    TMP DP  RH WIND       PRES   REMARKS
DAVENPORT      CLEAR     43  35  73 SE8       30.18S
IOWA CITY      PTCLDY    44  39  82 SE5       30.16S
MT. PLEASANT * PTCLDY    45  39  81 SE6       30.16S
MUSCATINE *    CLEAR     37  34  87 CALM      30.17S
QUAD CITIES    CLEAR     41  34  76 SE5       30.18S
$$

IAZ062-063-075>077-085>089-095>099-230900-
   SOUTHEAST IOWA

CITY           SKY/WX    TMP DP  RH WIND       PRES   REMARKS
BURLINGTON     CLEAR     46  40  79 S9        30.16S
FAIRFIELD *    CLEAR     46  41  81 S9        30.14S
FORT MADISON * CLEAR     48  43  81 S10       30.17S
KEOKUK *       CLEAR     46  41  81 SE8       30.16S
OSKALOOSA *    CLOUDY    50  41  71 S10       30.11F
CENTERVILLE *  PTCLDY    50  43  76 S7        30.12F
OTTUMWA        MOCLDY    51  41  68 S13       30.11F
WASHINGTON *   CLEAR     45  41  87 S8        30.14S
$$

ABBREVIATIONS USED IN REMARKS
   TC - TEMPERATURES IN CELSIUS
  WCI - WIND CHILL INDEX
   HX - HEAT INDEX
  VSB - VISIBILITY
$$




USA.gov is the U.S. government's official web portal to all federal, state and local government web resources and services.